Location: Harburg
(48.7667°N, 10.6667°E)
Time: 05:19:00
(UTC+00:00)

Cosmos 2369 Rocket - Pass Details

Date: 18 September 2020
Orbit: 827 x 854 km, 71.0° (Epoch: 27 October)

Event Time Altitude Azimuth Distance (km) Brightness Sun altitude
Exits shadow 22:59:39 17° 38° (NE) 2,003 4.5 -39.8°
Drops below altitude 10° 23:00:55 10° 34° (NE) 2,467 5.1 -39.8°
Sets 23:03:24 0° 31° (NNE) 3,411 6.0 -39.8°
